Location: Byszew
(52.1813°N, 19.2693°E)
Time: 02:06:08
(UTC+00:00)

USA 234 - Pass Details

Date: 03 March 2021
Orbit: 1102 x 1105 km, 123.0° (Epoch: 08 April)

Event Time Altitude Azimuth Distance (km) Brightness Sun altitude
Exits shadow 17:52:35 16° 76° (ENE) 2,524 4.6 -14.0°
Maximum altitude 17:57:07 35° 133° (SE) 1,694 3.8 -14.7°
Drops below altitude 10° 18:03:00 10° 198° (SSW) 2,955 5.6 -15.6°
Sets 18:05:44 0° 207° (SSW) 3,910 6.4 -16.0°
